User: anonymous   Login
Location: Unspecified
(0.0000°N, 0.0000°E)
Time: 22:30:50
(UTC+01:00)
Language:

Cosmos 1295 Rocket - Orbit

View from above orbital plane
View from above orbital plane
View from above satellite
View from above satellite

Ground track
Ground track

The orbit data is extracted from the following two-line orbital elements,

1 12682U 81077B   14355.12836803  .00000052  00000-0  36250-4 0  8357
2 12682 082.9173 336.0178 0034152 016.1653 031.3635 13.78469556677629
Epoch (UTC): 21 December 2014 03:04:50
Eccentricity: 0.0034152
inclination: 82.9173°
perigee height: 944 km
apogee height: 994 km
right ascension of ascending node: 336.0178°
argument of perigee: 16.1653°
revolutions per day: 13.78469556
mean anomaly at epoch: 31.3635°
orbit number at epoch: 67762

The dashed part of the orbit path shows where the satellite is in the earth's shadow,  

DLR